Temp
-12 -12 -12 -12 -11 -11 -11 -11 -11 -11 -11 -11 -11 -11 -11 -11 -11 -11 -11 -11 -11 -11 -11 -11 -11 -11 -11 -11 -11 -11 -10 -10 -10 -9 -9 -9 -8 -8 -7 -7 -6 -6
-12 -12 -12 -12 -12 -12 -12 -12 -12 -12 -12 -12 -12 -11 -11 -11 -11 -11 -11 -11 -11 -11 -11 -11 -11 -11 -11 -11 -11 -11 -11 -10 -10 -10 -10 -9 -9 -8 -8 -7 -7 -7
-12 -12 -12 -12 -12 -12 -12 -12 -12 -12 -12 -12 -12 -12 -12 -12 -12 -12 -12 -12 -12 -12 -12 -12 -12 -12 -12 -12 -12 -11 -11 -11 -11 -11 -10 -10 -10 -9 -8 -8 -7 -7
-13 -13 -13 -12 -12 -12 -12 -12 -12 -12 -12 -12 -12 -12 -12 -12 -12 -12 -12 -12 -12 -12 -12 -12 -12 -12 -12 -12 -12 -12 -12 -11 -11 -11 -11 -11 -10 -10 -9 -8 -8 -7
-13 -13 -13 -13 -13 -12 -12 -12 -12 -12 -12 -12 -12 -13 -12 -12 -12 -12 -12 -12 -12 -12 -12 -12 -12 -12 -12 -12 -12 -12 -12 -11 -11 -11 -11 -11 -11 -10 -10 -9 -9 -8
-13 -13 -13 -13 -13 -13 -13 -13 -13 -13 -13 -13 -13 -13 -13 -13 -13 -13 -13 -13 -12 -12 -12 -12 -12 -12 -12 -12 -12 -12 -12 -12 -12 -11 -11 -11 -11 -10 -10 -10 -9 -9
-13 -13 -13 -13 -13 -13 -13 -13 -13 -13 -13 -13 -13 -13 -13 -13 -13 -13 -13 -13 -13 -13 -12 -12 -12 -12 -12 -12 -12 -12 -12 -12 -12 -12 -11 -11 -11 -11 -10 -10 -9 -9
-14 -14 -14 -13 -13 -13 -13 -13 -13 -13 -13 -13 -13 -13 -13 -13 -13 -13 -13 -13 -13 -13 -13 -13 -12 -12 -12 -12 -12 -12 -12 -12 -12 -12 -12 -11 -11 -11 -11 -10 -10 -9
-14 -14 -14 -14 -13 -13 -13 -13 -13 -13 -14 -14 -14 -14 -14 -14 -14 -14 -14 -14 -13 -13 -13 -13 -13 -13 -12 -12 -12 -12 -12 -12 -12 -12 -12 -12 -12 -11 -11 -10 -10 -10
-14 -14 -14 -14 -13 -13 -13 -13 -14 -14 -14 -14 -14 -14 -14 -14 -14 -14 -14 -14 -14 -13 -13 -13 -13 -13 -13 -12 -12 -12 -12 -12 -12 -12 -12 -12 -12 -12 -11 -11 -10 -10
-14 -14 -14 -14 -14 -14 -14 -14 -14 -14 -14 -15 -15 -15 -15 -14 -14 -14 -14 -14 -14 -14 -13 -13 -13 -13 -13 -12 -12 -12 -12 -12 -12 -12 -12 -12 -12 -12 -12 -11 -11 -11
-15 -14 -14 -14 -14 -14 -14 -14 -15 -15 -15 -15 -15 -15 -15 -15 -15 -15 -14 -14 -14 -14 -14 -14 -13 -13 -13 -13 -13 -12 -12 -12 -12 -12 -12 -12 -12 -12 -12 -12 -12 -11
-15 -14 -14 -14 -15 -15 -15 -15 -15 -15 -15 -15 -15 -15 -15 -15 -15 -15 -15 -14 -14 -14 -14 -14 -14 -13 -13 -13 -13 -13 -12 -12 -12 -12 -12 -12 -12 -12 -12 -12 -12 -12
-15 -15 -15 -15 -15 -15 -15 -15 -16 -16 -16 -16 -16 -16 -16 -16 -15 -15 -15 -15 -15 -14 -14 -14 -14 -13 -13 -13 -13 -13 -13 -12 -12 -12 -12 -12 -12 -12 -12 -12 -12 -12
-15 -15 -15 -15 -15 -16 -16 -16 -16 -16 -16 -16 -16 -16 -16 -16 -16 -16 -15 -15 -15 -14 -14 -14 -14 -14 -13 -13 -13 -13 -13 -13 -12 -12 -12 -12 -12 -12 -12 -12 -12 -12
-16 -16 -16 -16 -16 -16 -16 -17 -17 -17 -17 -17 -17 -17 -16 -16 -16 -16 -15 -15 -15 -14 -14 -14 -14 -13 -13 -13 -12 -12 -12 -12 -12 -12 -12 -12 -12 -12 -12 -12 -12 -12
-16 -16 -16 -16 -17 -17 -17 -17 -17 -17 -17 -17 -17 -17 -17 -16 -16 -16 -15 -15 -15 -14 -14 -14 -13 -13 -13 -12 -11 -11 -11 -11 -12 -12 -12 -12 -12 -12 -12 -12 -12 -12
-16 -16 -17 -17 -17 -17 -17 -18 -18 -18 -18 -18 -17 -17 -17 -16 -16 -16 -15 -15 -14 -14 -14 -13 -13 -12 -12 -11 -11 -10 -10 -10 -10 -11 -11 -12 -12 -12 -12 -12 -12 -12
-17 -17 -17 -17 -18 -18 -18 -18 -18 -18 -18 -18 -18 -17 -17 -16 -16 -15 -15 -14 -14 -13 -13 -13 -12 -12 -11 -11 -10 -10 -9 -9 -9 -9 -10 -10 -11 -11 -11 -11 -11 -11
-17 -18 -18 -18 -18 -18 -18 -19 -18 -18 -18 -18 -18 -17 -17 -16 -16 -15 -14 -14 -13 -13 -13 -12 -12 -11 -11 -10 -10 -9 -8 -8 -8 -8 -9 -9 -10 -10 -10 -11 -11 -11
-18 -18 -18 -18 -19 -19 -19 -19 -19 -18 -18 -18 -18 -17 -17 -16 -15 -15 -14 -14 -13 -13 -12 -12 -11 -11 -10 -10 -9 -8 -8 -7 -7 -7 -8 -8 -9 -9 -9 -10 -10 -10
-18 -19 -19 -19 -19 -19 -19 -19 -19 -18 -18 -18 -17 -17 -17 -16 -15 -15 -14 -13 -13 -12 -12 -11 -10 -10 -10 -9 -8 -8 -7 -7 -7 -7 -7 -7 -7 -8 -8 -8 -9 -9
-19 -19 -19 -19 -19 -19 -19 -19 -19 -18 -18 -18 -17 -17 -17 -16 -15 -15 -14 -13 -13 -12 -11 -11 -10 -9 -9 -8 -8 -7 -7 -7 -7 -7 -6 -6 -6 -7 -7 -7 -7 -8
-20 -20 -20 -20 -19 -19 -19 -19 -19 -19 -18 -18 -17 -17 -17 -16 -15 -14 -14 -13 -12 -11 -11 -11 -10 -9 -8 -8 -7 -7 -6 -6 -7 -6 -6 -6 -6 -6 -6 -6 -6 -7
-20 -20 -20 -20 -20 -20 -20 -19 -19 -19 -18 -18 -18 -17 -16 -16 -15 -14 -13 -12 -12 -11 -10 -10 -9 -8 -8 -7 -7 -6 -6 -6 -6 -6 -6 -6 -6 -6 -6 -6 -6 -6
-20 -20 -20 -20 -20 -20 -20 -19 -19 -19 -18 -18 -17 -17 -16 -15 -14 -14 -13 -12 -11 -10 -10 -9 -8 -8 -7 -7 -6 -6 -5 -6 -6 -6 -6 -6 -6 -6 -6 -6 -6 -6
Height
841 839 837 835 833 831 830 828 826 824 823 821 819 818 816 815 814 813 812 811 810 808 807 806 806 805 804 803 802 801 800 799 798 797 796 795 794 794 794 793 792 792
839 837 835 833 832 830 828 827 825 823 821 819 818 816 815 813 812 811 810 808 807 806 805 804 803 803 802 801 801 799 798 797 796 796 795 793 792 792 791 791 791 790
837 835 834 832 830 828 827 825 823 821 819 818 816 815 813 811 810 809 807 806 805 804 803 802 801 800 799 799 799 798 797 795 794 794 793 792 791 790 789 789 789 788
836 834 832 831 829 827 825 823 821 820 818 816 814 813 811 810 808 806 805 804 802 801 800 799 798 797 797 796 796 795 794 793 793 792 791 790 789 788 787 787 786 785
834 833 831 829 827 825 823 821 819 818 816 814 812 811 809 808 806 804 803 801 800 799 797 796 795 795 794 793 793 792 792 791 790 790 789 787 787 786 785 784 784 783
832 831 829 827 825 823 822 820 818 816 814 812 810 809 807 805 804 802 800 799 797 796 795 793 793 792 791 790 790 789 788 788 788 787 786 785 784 783 783 782 782 781
830 829 827 825 823 822 820 818 816 814 812 810 808 807 805 803 801 800 798 796 795 793 792 791 790 789 788 787 786 786 785 785 785 784 783 782 782 781 780 779 779 778
829 827 825 823 821 819 817 815 814 812 810 808 806 804 803 801 799 797 795 794 792 790 789 788 786 785 785 784 783 782 782 782 781 781 780 779 779 778 778 777 776 775
827 825 823 821 819 817 815 813 812 810 808 806 804 802 800 799 797 795 793 791 789 787 786 784 783 782 781 781 780 779 778 778 778 778 777 777 776 775 775 774 773 773
824 823 821 819 817 815 813 811 809 807 806 804 802 800 798 796 794 792 790 788 786 784 782 781 780 779 778 777 776 775 775 774 774 774 774 774 773 772 772 771 770 769
822 820 819 817 815 813 811 809 807 805 804 802 800 797 795 793 791 789 787 785 783 781 779 778 776 775 774 773 772 772 771 770 770 770 770 770 769 769 769 768 767 766
819 818 816 814 813 811 809 807 805 803 801 799 797 794 792 790 788 786 784 782 780 778 776 774 773 772 770 769 768 768 767 766 766 766 765 765 765 765 765 765 764 764
817 815 813 812 810 808 807 805 803 801 798 796 794 792 789 787 784 782 780 778 776 774 772 771 769 768 766 765 764 763 763 762 762 762 761 761 761 761 761 761 760 760
814 813 811 809 807 805 804 802 800 798 796 793 791 789 786 784 781 779 777 775 773 771 769 767 765 764 762 761 760 759 759 758 758 758 757 757 757 757 756 756 756 756
813 811 809 807 805 802 801 799 797 795 793 790 788 786 783 781 778 776 773 771 769 767 765 763 761 759 757 756 755 754 754 753 753 753 753 753 753 752 752 752 751 751
811 809 806 804 802 800 798 796 794 792 789 787 785 782 780 778 775 772 770 767 765 763 761 759 757 754 752 751 751 749 749 749 748 748 749 748 748 747 747 746 746 746
809 807 805 802 800 798 796 793 791 789 786 784 782 779 777 775 772 769 766 764 762 759 757 755 752 750 748 747 746 746 745 744 743 743 743 743 743 742 741 741 741 741
808 805 803 800 798 796 793 791 789 786 784 781 778 776 774 771 769 766 763 761 759 756 753 751 748 746 744 743 742 741 741 741 739 738 737 737 737 737 736 735 735 735
806 804 801 799 796 794 791 789 786 784 781 779 776 773 771 768 766 763 760 758 756 754 750 747 744 742 741 740 738 737 737 736 735 734 732 731 731 731 731 730 730 730
805 802 799 797 795 792 789 787 784 781 779 776 773 771 768 766 763 760 758 755 754 751 748 745 742 739 737 736 734 733 732 731 730 729 727 725 725 725 725 724 724 725
803 800 798 795 793 790 787 784 782 779 776 774 771 769 766 763 760 758 755 752 750 748 746 742 738 736 734 732 731 729 728 727 726 724 723 721 720 720 720 719 718 719
801 798 796 793 791 788 785 782 780 777 774 772 769 766 764 761 758 755 753 750 747 745 743 739 735 732 730 728 727 725 724 723 722 720 719 718 717 716 715 714 713 714
799 796 793 791 789 786 783 780 778 775 772 770 767 764 761 758 756 753 750 748 744 741 740 737 732 729 727 725 723 721 720 719 718 716 715 715 714 713 712 710 709 709
797 794 792 789 786 784 781 778 776 773 770 768 766 762 760 756 753 751 748 746 743 739 737 734 730 726 723 722 719 717 716 715 714 713 712 711 711 710 709 708 706 705
794 792 790 787 784 782 779 776 774 771 768 766 764 761 758 755 752 749 745 742 740 737 734 731 728 724 721 719 716 713 711 711 710 709 709 708 707 706 706 705 703 702
791 789 787 785 782 779 777 774 772 769 767 764 762 759 756 753 750 747 744 740 737 734 731 729 727 723 719 716 714 711 708 708 707 706 705 704 704 703 703 702 700 699
Wind_Speed
22 21 20 19 19 19 19 20 21 22 22 22 22 22 22 22 22 22 22 22 22 22 22 23 23 23 24 25 25 25 25 25 24 23 24 25 26 24 22 22 21 22
21 19 18 19 19 20 20 21 22 22 23 22 22 22 22 22 22 22 22 22 22 22 22 23 23 23 23 23 24 25 24 25 24 23 23 24 26 28 27 25 24 23
20 19 19 20 20 21 22 22 22 22 22 22 22 23 23 23 23 23 23 23 23 23 23 23 23 24 24 23 24 25 25 24 24 24 24 24 25 26 27 26 26 25
19 20 20 20 21 22 22 22 22 22 22 23 23 23 23 23 23 23 23 23 23 23 23 23 23 23 23 23 23 24 25 25 24 25 26 27 27 27 27 25 24 24
20 21 21 21 22 22 22 22 22 23 23 24 24 24 23 23 23 23 23 23 23 23 23 23 23 23 23 23 23 23 23 24 24 24 26 28 29 30 29 26 24 24
21 21 22 22 22 22 22 23 23 23 24 24 24 23 23 23 23 23 23 23 23 23 23 24 24 24 24 23 23 24 24 24 24 24 25 26 28 29 30 29 28 27
21 22 22 22 22 22 23 23 23 23 24 24 24 24 23 23 23 23 24 24 24 24 24 24 24 24 23 23 23 23 23 24 24 25 26 25 25 27 28 29 30 31
21 22 22 22 23 23 23 23 23 23 24 24 25 24 23 23 23 23 23 23 24 24 24 24 24 24 24 24 24 24 24 23 23 23 25 25 25 27 28 28 28 29
21 21 22 23 23 23 23 23 23 24 24 24 24 24 23 23 23 23 24 24 24 24 24 24 24 25 25 25 25 26 25 25 25 24 24 25 25 26 28 29 29 29
21 21 21 22 22 23 23 23 24 24 24 23 23 24 24 24 24 24 24 24 25 25 25 25 25 25 25 26 26 26 27 26 26 26 26 26 26 25 25 26 27 28
20 20 21 21 21 22 23 24 24 24 24 24 24 24 25 24 25 25 24 25 25 25 25 25 25 24 25 26 26 26 27 27 27 27 28 29 29 28 27 26 25 25
20 19 20 21 22 22 23 24 25 26 26 25 25 25 25 25 25 25 25 25 25 25 26 25 25 25 26 26 26 26 27 27 27 28 28 29 30 30 31 31 30 28
19 19 20 21 22 22 23 25 26 26 26 25 25 25 26 26 26 26 26 26 26 26 26 26 26 26 27 27 27 28 28 28 28 28 28 28 28 29 30 31 33 33
19 20 20 21 22 23 24 25 26 26 26 26 26 26 26 28 28 28 27 27 27 27 27 27 27 27 28 28 28 28 29 29 29 29 29 29 29 29 30 30 31 34
20 21 21 21 22 23 25 25 26 26 26 26 26 26 28 29 29 29 29 29 28 28 29 28 29 30 30 28 28 29 30 30 29 29 28 29 29 29 30 31 31 32
21 21 21 22 23 24 25 25 25 25 25 25 26 27 29 29 29 29 30 30 30 31 31 30 30 31 31 28 27 29 29 29 30 31 30 29 29 29 29 30 32 33
22 22 22 23 24 25 25 25 25 25 26 26 26 28 30 29 28 29 30 30 32 32 32 32 32 31 29 28 28 28 28 29 30 31 31 30 30 30 30 30 31 32
23 23 24 24 24 25 25 26 26 25 25 26 27 29 29 29 28 29 30 31 31 31 32 33 33 31 29 28 28 28 27 28 29 31 33 34 33 32 32 32 30 30
23 24 25 25 25 25 26 27 27 26 25 26 29 29 29 29 29 29 30 30 29 29 31 32 32 31 29 27 27 27 26 26 28 30 33 36 37 36 35 34 32 31
24 25 25 26 26 26 27 27 27 27 27 27 28 28 27 28 28 28 29 29 27 27 29 30 31 31 29 27 27 26 26 26 27 29 32 35 37 37 38 37 35 32
24 25 26 27 27 27 27 28 28 28 28 27 27 27 26 27 27 27 28 28 28 28 28 30 32 32 29 28 28 26 25 24 25 26 28 31 34 35 36 37 36 33
25 26 27 28 28 27 27 28 28 28 28 27 26 25 25 25 26 27 27 28 29 29 28 29 33 33 30 29 28 26 25 24 24 23 23 25 28 31 33 35 35 33
25 27 28 27 27 27 28 28 26 26 26 25 24 24 24 25 26 27 27 28 30 30 29 30 33 34 31 29 28 25 24 24 23 22 22 21 22 25 28 31 32 32
26 27 27 27 27 28 29 28 25 25 25 25 24 24 24 25 26 27 28 28 28 30 31 31 32 33 31 29 28 26 23 22 22 21 21 20 21 22 22 24 28 30
26 26 26 27 28 28 28 28 25 24 24 25 25 25 25 26 26 26 29 30 30 31 32 30 29 31 31 29 27 25 23 20 20 20 20 19 19 19 18 21 24 25
26 26 27 27 27 28 28 28 25 24 24 25 26 26 25 26 26 27 29 31 32 31 30 28 26 29 31 27 21 19 17 13 13 16 17 18 18 16 16 19 21 21
Wind_Direction
310 307 306 307 308 308 308 308 307 305 303 301 299 297 296 296 295 294 292 289 286 283 282 282 282 281 282 285 287 287 285 283 283 284 285 281 276 277 281 281 278 275
310 310 311 312 311 308 306 306 304 302 300 298 298 296 296 295 294 292 291 290 288 285 283 280 280 281 281 282 283 282 281 279 279 279 281 280 276 273 273 274 275 276
311 313 314 312 309 306 306 305 302 301 300 299 298 298 297 296 294 293 291 289 287 285 283 281 279 279 277 276 275 275 276 278 278 277 277 277 274 273 272 271 270 270
312 313 312 310 308 307 307 305 303 302 301 300 299 298 297 295 293 291 289 288 287 285 283 281 279 277 275 272 270 270 271 272 274 275 275 274 272 271 273 274 271 267
312 312 311 310 308 308 307 305 305 304 302 301 299 297 296 294 291 290 288 287 286 284 283 280 278 277 275 273 270 268 267 268 268 268 268 268 268 267 267 270 272 270
311 311 311 310 309 308 307 306 304 304 303 301 300 297 296 293 291 289 288 286 285 283 281 279 277 275 273 271 268 265 264 264 264 264 264 264 265 265 264 263 264 265
311 312 311 309 309 308 307 306 304 304 303 302 300 298 295 293 291 289 287 286 284 282 280 278 276 275 272 270 268 266 263 262 261 262 263 264 264 264 263 261 260 260
311 311 310 308 308 307 306 306 306 306 305 304 301 298 296 293 291 290 288 286 284 282 280 278 276 273 272 269 267 267 265 264 262 261 261 262 261 261 261 261 260 259
310 309 309 308 308 308 308 308 307 307 307 304 301 299 296 293 291 290 288 286 284 281 279 277 275 273 271 267 265 264 262 261 260 259 260 260 259 258 258 258 260 261
309 309 308 308 309 309 309 309 308 308 306 303 301 299 296 294 291 289 288 286 284 281 279 276 274 272 269 266 264 262 260 259 257 255 256 257 258 260 259 258 258 259
308 308 309 309 310 309 309 309 308 307 305 302 300 298 296 295 292 289 287 285 283 281 279 277 275 272 270 266 263 261 259 257 255 254 253 253 255 258 261 262 262 261
307 308 309 310 310 309 309 308 308 307 305 302 300 298 297 295 293 291 288 285 282 281 279 277 274 272 269 267 265 262 260 257 255 253 252 251 251 253 255 258 259 260
307 308 309 309 308 308 307 307 307 306 304 303 300 299 297 295 293 291 289 287 284 281 279 276 274 271 268 266 264 261 259 257 255 254 253 252 251 251 251 251 251 253
306 307 307 307 307 306 306 306 307 306 304 302 301 300 297 296 294 292 290 288 284 281 278 276 273 269 266 264 262 259 257 256 255 253 253 253 253 253 252 250 249 248
306 307 306 306 306 305 306 306 306 306 305 302 301 301 300 299 297 295 291 288 286 285 283 279 273 269 267 264 261 259 255 253 252 251 251 251 252 253 252 250 249 248
306 306 306 306 306 305 306 306 306 306 305 303 301 300 302 303 301 298 294 291 292 291 288 283 278 274 271 265 260 258 255 252 249 248 247 248 248 249 249 248 248 248
306 306 306 306 305 306 306 306 306 306 304 304 304 304 305 305 303 300 297 297 298 297 293 290 288 284 277 269 264 261 257 254 250 246 245 244 244 244 245 246 245 245
306 307 307 306 305 306 306 306 306 305 303 304 305 308 309 308 305 304 303 302 301 300 298 297 295 292 284 276 271 266 261 257 253 250 247 244 243 244 244 245 244 244
308 308 307 306 306 306 306 306 306 305 304 305 306 308 309 308 307 306 304 303 301 299 298 297 296 296 290 282 279 274 269 262 256 252 250 248 246 245 246 246 244 243
308 308 307 306 306 307 306 305 306 305 305 306 306 308 308 307 307 306 304 303 301 299 297 296 297 297 292 286 284 281 277 271 263 254 250 250 249 248 249 248 245 242
308 307 307 306 307 307 306 305 304 305 305 306 306 306 306 306 306 305 305 305 304 302 300 298 300 300 294 288 287 286 283 281 276 265 254 250 250 250 250 250 249 243
308 307 306 306 307 306 305 304 304 305 305 306 306 304 304 306 307 306 305 305 306 306 302 300 304 305 300 294 291 288 286 284 282 278 269 258 255 253 252 253 252 246
307 307 305 305 305 305 303 303 304 304 304 305 305 301 301 305 307 306 306 306 306 307 304 301 304 309 308 303 299 295 290 286 283 280 274 268 267 266 261 258 255 250
306 305 304 303 303 302 302 302 302 301 301 304 304 301 301 305 306 306 306 306 305 306 307 304 303 309 313 309 303 299 293 287 284 280 272 267 269 271 270 268 263 258
306 304 304 303 301 301 301 301 301 300 301 303 304 302 302 304 306 306 307 309 309 309 311 311 309 314 317 312 306 304 299 288 280 275 270 267 268 270 272 275 270 261
305 305 304 303 301 300 301 301 301 300 301 303 304 304 304 304 307 307 308 311 314 315 318 319 318 320 321 320 325 332 329 314 291 280 271 265 268 273 278 279 271 259